Regional Weather Roundup
Issued by NWS

Home | Current Version | Previous Version | Text Only | Print | Product List | Glossary Off
Versions: 1 2 3 4 5 6 7 8 9 10 11 12 13 14 15 16 17 18 19 20 21 22 23 24 25 26 27 28 29 30 31 32 33 34 35 36 37 38 39 40 41 42 43 44 45 46 47 48 49 50

000
ASUS43 KLOT 052312
RWRIL

ILLINOIS REGIONAL WEATHER ROUNDUP
NATIONAL WEATHER SERVICE CHICAGO/ROMEOVILLE IL
600 PM CDT TUE MAY 05 2015

NOTE: "FAIR" INDICATES FEW OR NO CLOUDS BELOW 12,000 FEET WITH NO
SIGNIFICANT WEATHER AND/OR OBSTRUCTIONS TO VISIBILITY.

* THESE STATIONS ARE NOT UNDER NWS QUALITY CONTROL. THEY ALSO MAY NOT
  REPORT WEATHER SUCH AS PRECIPITATION OR FOG.

ILZ001-002-007-009-015-016-024-060000-
NORTHWEST ILLINOIS

CITY           SKY/WX    TMP DP  RH WIND       PRES   REMARKS
MOLINE         PTSUNNY   68  62  81 NE13      30.10F HAZE
STERLING*      CLOUDY    63  57  82 NE13      30.15F
SAVANNA*       CLOUDY    61  56  83 NE10      30.16F
$$

ILZ003-004-008-010-011-017-018-060000-
NORTH CENTRAL ILLINOIS

CITY           SKY/WX    TMP DP  RH WIND       PRES   REMARKS
ROCKFORD       CLOUDY    56  50  80 E10       30.20S
FREEPORT*      CLOUDY    55  53  91 E10       30.20F
ROCHELLE*      CLOUDY    58  56  90 NE12      30.18S FOG
DE KALB*       CLOUDY    55  51  89 NE14      30.19S FOG
PERU*          PTSUNNY   66  62  85 NE14      30.14F FOG
$$

ILZ005-006-012>014-019>023-060000-
NORTHEAST ILLINOIS

CITY           SKY/WX    TMP DP  RH WIND       PRES   REMARKS
CHICAGO-OHARE  CLOUDY    49  47  93 NE9       30.20S FOG
CHICAGO-MIDWAY CLOUDY    54  50  86 NE8       30.20S FOG
AURORA         PTSUNNY   59  51  75 NE13      30.18S
LANSING*       CLOUDY    56  50  81 N8        30.19S HAZE
JOLIET*        PTSUNNY   62  56  82 NE13      30.17S
WAUKEGAN       CLOUDY    46  45  96 NE7       30.22F
DUPAGE AIRPORT CLOUDY    54  50  86 NE12      30.19R
KANKAKEE*      CLOUDY    63  61  93 NE10G18   30.14F
WHEELING       CLOUDY    48  46  93 NE7       30.23S FOG
MORRIS*        PTSUNNY   63  56  79 NE5       30.14S
ROMEOVILLE*    PTSUNNY   57  53  84 NE9       30.17F FOG
NORTHERLY ISL    N/A     46  45  96 MISG        N/A
$$

LMZ740>746-060000-
SOUTHERN LAKE MICHIGAN

STATION/POSITION SKY/WX   TEMP    WIND        PRES    VSBY  WAVE
                          AIR SEA DIR/SP/G                  HT/PER
                          (F)     (DEG/KT/KT) (MB)    (MI)  (FT/S)
HARRISON CRIB              44     350/ 14/ 15   N/A
BURNHAM HARBOR             46     350/  6/ 12   N/A
CALUMET HARBOR             47     330/ 10/ 13   N/A
BURNS HARBOR               51      30/  7/  9 1022.4S
MICHIGAN CITY              53      20/ 13/ 14   N/A
MICHIGAN CITY 6N           51 50   40/ 10/ 12   N/A           2/ 4
ST. JOSEPH                 54 49  120/ 10/ 14   N/A           2/ 3
$$

ILZ025>027-034>036-040-047-049-050-058-095>099-060000-
WEST-CENTRAL ILLINOIS

CITY           SKY/WX    TMP DP  RH WIND       PRES   REMARKS
QUINCY         MOSUNNY   81  50  33 S9        30.06F HX  80
GALESBURG*     RAIN      73  66  77 E9        30.09S
MACOMB*        MOSUNNY   81  59  47 S8        30.09F HX  81
JACKSONVILLE*  SUNNY     86  50  28 S7        30.08S HX  84
PITTSFIELD*    MOSUNNY   84  51  31 S8        30.09S HX  82
$$

ILZ028>032-037-038-041>044-048-051>054-059>061-060000-
CENTRAL ILLINOIS

CITY           SKY/WX    TMP DP  RH WIND       PRES   REMARKS
PONTIAC        CLOUDY    73  69  86 NE13      30.13S
BLOOMINGTON    PTSUNNY   78  65  64 N13       30.12S HX  80
DECATUR        MOSUNNY   83  50  31 SW12      30.10S HX  81
PEORIA         MOSUNNY   77  61  57 NE9       30.10S
LACON*         PTSUNNY   71  65  83 NE8       30.11S HAZE
LINCOLN*       MOSUNNY   82  62  51 N6        30.06S HX  83
SPRINGFIELD    MOSUNNY   85  51  31 SW9       30.08F HX  83
TAYLORVILLE    SUNNY     82  54  36 S10G18    30.10S HX  81
$$

ILZ033-039-045-046-055>057-062-063-060000-
EAST-CENTRAL ILLINOIS

CITY           SKY/WX    TMP DP  RH WIND       PRES   REMARKS
CHAMPAIGN      PTSUNNY   84  49  29 SW16      30.10S HX  82
DANVILLE*      PTSUNNY   82  51  34 SW9       30.08S HX  80
RANTOUL*       CLOUDY    82  56  41 SW10      30.10S HX  81
MATTOON        MOSUNNY   81  52  36 S13       30.11S HX  80
PARIS*         MOSUNNY   82  51  33 SW12      30.12S HX  81
$$

ILZ079-100>102-060000-
SOUTHWEST ILLINOIS

CITY           SKY/WX    TMP DP  RH WIND       PRES   REMARKS
ALTON          MOSUNNY   79  55  44 S10       30.11F
BELLEVILLE     MOSUNNY   83  58  43 VRB2      30.09F HX  82
CAHOKIA*       MOSUNNY   83  57  41 VRB5      30.09F HX  82
SPARTA*        CLOUDY    77  63  61 SE15G22   30.13R
$$

ILZ064>066-069>071-074>076-080>082-084>086-088>090-092>094-060000-
SOUTH-CENTRAL ILLINOIS

CITY           SKY/WX    TMP DP  RH WIND       PRES   REMARKS
CARBONDALE     PTSUNNY   76  59  55 SW12      30.13S
CAIRO*         PTSUNNY   81  55  41 SE6       30.12F HX  81
EFFINGHAM*     SUNNY     82  47  30 S7        30.13S HX  80
MARION         PTSUNNY   79  61  53 S8        30.14F HX  80
MT. VERNON     SUNNY    N/A N/A N/A S14       30.13S
CENTRALIA*     MOSUNNY   83  53  36 S9        30.12S HX  82
SALEM*         MOSUNNY   84  50  30 S8        30.13S HX  82
METROPOLIS*    PTSUNNY   82  55  38 SE6       30.12F HX  81
$$

ILZ067-068-072-073-078-083-087-091-060000-
SOUTHEAST ILLINOIS

CITY           SKY/WX    TMP DP  RH WIND       PRES   REMARKS
LAWRENCEVILLE  SUNNY     84  52  33 S14       30.13S HX  82
FLORA*         SUNNY     83  51  32 S8        30.12F HX  82
FAIRFIELD*     PTSUNNY   82  54  37 S7        30.12S HX  81
HARRISBURG*    MOSUNNY   82  52  34 S7        30.15R HX  81
ROBINSON*      SUNNY     85  49  29 S12       30.14S HX  83
CARMI*         SUNNY     82  46  27 S6        30.13S HX  81
$$

ABBREVIATIONS USED IN REMARKS
   TC - TEMPERATURE IN CELSIUS
  WCI - WIND CHILL INDEX
   HX - HEAT INDEX
  VSB - VISIBILITY
$$




USA.gov is the U.S. government's official web portal to all federal, state and local government web resources and services.